Hourly Data Report for September 03, 2019

All times are specified in Local Standard Time (LST). Add 1 hour to adjust for Daylight Saving Time where and when it is observed.

EUREKA CLIMATE
NUNAVUT
Current Station Operator: ECCC - MSC

79°59'21.000" N
85°56'02.000" W
10.00 m
2401199
71613
NEK

Download Data

Hourly Data (September 2019)
Hourly Data Report for September 3, 2019
TIME Temp Definition
°C
Dew Point Definition
°C
Rel Hum Definition
%
Wind Dir Definition
10's deg

Wind Spd Definition
km/h
Visibility Definition
km
Stn Press Definition
kPa
Hmdx Definition


Wind Chill Definition


Weather Definition


00:00 1.4 -0.9 85 29 17   101.20     LegendNANA
01:00 1.3 -0.9 85 30 13   101.21     LegendNANA
02:00 1.0 -0.7 89 28 12   101.24     LegendNANA
03:00 0.2 -1.5 88 32 11   101.23     LegendNANA
04:00 -0.2 -1.4 92 1 7   101.28   -3 LegendNANA
05:00 -0.9 -1.5 96 6 4   101.32   -2 LegendNANA
06:00 -0.6 -1.4 94 11 9   101.35   -4 LegendNANA
07:00 -0.5 -1.1 96 10 6   101.36   -3 LegendNANA
08:00 0.1 -1.5 89 10 5   101.36     LegendNANA
09:00 0.1 -0.8 94 13 8   101.37     LegendNANA
10:00 0.2 -1.3 89 4 2   101.36     LegendNANA
11:00 1.0 -1.6 83 23 3   101.38     LegendNANA
12:00 0.3 -1.6 87 28 6   101.41     LegendNANA
13:00 -0.2 -1.3 93 29 11   101.42   -4 LegendNANA
14:00 0.0 -1.1 93 26 4   101.44   -1 LegendNANA
15:00 0.3 -0.8 92 23 4   101.45     LegendNANA
16:00 0.3 -1.2 89 25 8   101.45     LegendNANA
17:00 0.1 -1.1 92 23 6   101.46     LegendNANA
18:00 0.2 -1.0 92 25 12   101.44     LegendNANA
19:00 0.6 -1.0 89 27 9   101.45     LegendNANA
20:00 0.7 -0.9 89 27 13   101.43     LegendNANA
21:00 0.6 -1.2 88 27 12   101.42     LegendNANA
22:00 -0.1 -1.4 91 34 17   101.40   -5 LegendNANA
23:00 0.0 -1.3 91 33 11   101.38   -4 LegendNANA

Notes on Data Quality.

Legend

  • E = Estimated
  • M = Missing
  • NA = Not Available
Date modified: